Weather History for Fergus Falls, MN

Change the Weather History Date:

Tuesday, May 21, 2013

  Actual Average Record
Temperature  
Mean Temperature 50 °F -  
Max Temperature 53 °F 71 °F 96 °F (1964)
Min Temperature 48 °F 47 °F 32 °F (1963)
Degree Days  
Heating Degree Days 14    
Moisture  
Dew Point 48 °F    
Average Humidity 89    
Maximum Humidity 100    
Minimum Humidity 76    
Precipitation  
Precipitation 0.02 in - - ()
Sea Level Pressure  
Sea Level Pressure 29.66 in    
Wind  
Wind Speed 15 mph (ENE)    
Max Wind Speed 22 mph    
Max Gust Speed 31 mph    
Visibility 10 miles    
Events Rain    
Averages and records for this station are not official NWS values.
T = Trace of Precipitation, MM = Missing Value Source: NWS Daily Summary

Daily Weather History Graph

Daily Weather History Graph

Search for Another Location

Airport:

Trip Planner

Search our weather history database for the weather conditions in past years. The results will help you decide how hot, cold, wet, or windy it might be!

Date:

Astronomy

May. 21, 2013 Rise Set
Actual Time 5:44 AM CDT 8:58 PM CDT
Civil Twilight 5:08 AM CDT 9:34 PM CDT
Nautical Twilight 4:21 AM CDT 10:22 PM CDT
Astronomical Twilight 3:22 AM CDT 11:21 PM CDT
Moon 5:01 PM CDT (5/21) 3:26 AM CDT (5/21)
Length of Visible Light 16h 26m
Length of Day
15h 13m
Waxing Gibbous, 84% of the Moon is Illuminated
May 21
Waxing Gibbous
May 24
Full
May 31
Last Quarter
Jun 8
New
Jun 16
First Quarter

Hourly Weather History & Observations

Time (CDT) Temp. Dew Point Humidity Pressure Visibility Wind Dir Wind Speed Gust Speed Precip Events Conditions
12:13 AM 53.6 °F 53.6 °F 100% 29.53 in 10.0 mi East 16.1 mph - N/A   Overcast
12:33 AM 53.6 °F 53.6 °F 100% 29.53 in 10.0 mi East 13.8 mph 21.9 mph N/A   Overcast
12:53 AM 53.6 °F 51.8 °F 94% 29.54 in 5.0 mi East 11.5 mph 17.3 mph N/A   Overcast
1:13 AM 53.6 °F 51.8 °F 94% 29.54 in 10.0 mi East 11.5 mph - N/A   Overcast
1:33 AM 51.8 °F 51.8 °F 100% 29.54 in 7.0 mi East 17.3 mph 25.3 mph N/A   Overcast
1:53 AM 51.8 °F 51.8 °F 100% 29.55 in 4.0 mi East 16.1 mph 21.9 mph N/A Rain Light Rain
2:13 AM 51.8 °F 51.8 °F 100% 29.55 in 7.0 mi East 18.4 mph - N/A   Overcast
2:33 AM 51.8 °F 51.8 °F 100% 29.55 in 7.0 mi East 12.7 mph 21.9 mph N/A   Overcast
2:53 AM 51.8 °F 51.8 °F 100% 29.55 in 4.0 mi ENE 12.7 mph - N/A   Overcast
3:13 AM 51.8 °F 51.8 °F 100% 29.55 in 10.0 mi East 12.7 mph 20.7 mph N/A   Overcast
3:33 AM 51.8 °F 51.8 °F 100% 29.54 in 10.0 mi East 15.0 mph 24.2 mph N/A   Overcast
3:53 AM 51.8 °F 51.8 °F 100% 29.55 in 10.0 mi East 16.1 mph 26.5 mph N/A   Overcast
4:13 AM 51.8 °F 51.8 °F 100% 29.55 in 10.0 mi ENE 16.1 mph 21.9 mph N/A   Overcast
4:33 AM 51.8 °F 51.8 °F 100% 29.55 in 10.0 mi ENE 17.3 mph 21.9 mph N/A   Overcast
4:53 AM 51.8 °F 51.8 °F 100% 29.56 in 10.0 mi ENE 15.0 mph 26.5 mph N/A   Overcast
5:13 AM 51.8 °F 50.0 °F 94% 29.57 in 10.0 mi ENE 20.7 mph 26.5 mph N/A   Overcast
5:33 AM 51.8 °F 50.0 °F 94% 29.57 in 7.0 mi East 15.0 mph 26.5 mph N/A   Overcast
5:53 AM 51.8 °F 50.0 °F 94% 29.57 in 10.0 mi ENE 19.6 mph 26.5 mph N/A   Overcast
6:13 AM 51.8 °F 48.2 °F 88% 29.58 in 10.0 mi ENE 19.6 mph 27.6 mph N/A   Overcast
6:33 AM 51.8 °F 48.2 °F 88% 29.58 in 10.0 mi East 13.8 mph 27.6 mph N/A   Overcast
6:53 AM 51.8 °F 48.2 °F 88% 29.58 in 10.0 mi ENE 13.8 mph 21.9 mph N/A   Overcast
7:13 AM 51.8 °F 48.2 °F 88% 29.58 in 10.0 mi ENE 18.4 mph 24.2 mph N/A   Overcast
7:33 AM 51.8 °F 48.2 °F 88% 29.59 in 10.0 mi ENE 17.3 mph 26.5 mph N/A   Overcast
7:53 AM 51.8 °F 48.2 °F 88% 29.59 in 10.0 mi ENE 16.1 mph 25.3 mph N/A   Overcast
8:13 AM 51.8 °F 48.2 °F 88% 29.60 in 10.0 mi ENE 17.3 mph 23.0 mph N/A   Overcast
8:33 AM 51.8 °F 48.2 °F 88% 29.60 in 10.0 mi ENE 17.3 mph 24.2 mph N/A   Overcast
8:53 AM 51.8 °F 48.2 °F 88% 29.61 in 10.0 mi East 15.0 mph 25.3 mph N/A   Overcast
9:13 AM 51.8 °F 50.0 °F 94% 29.61 in 10.0 mi ENE 13.8 mph 23.0 mph N/A   Overcast
9:33 AM 51.8 °F 48.2 °F 88% 29.62 in 7.0 mi East 17.3 mph 24.2 mph N/A   Overcast
9:53 AM 51.8 °F 48.2 °F 88% 29.62 in 10.0 mi ENE 18.4 mph 26.5 mph 0.01 in   Overcast
10:13 AM 51.8 °F 48.2 °F 88% 29.62 in 10.0 mi East 21.9 mph 26.5 mph N/A   Overcast
10:33 AM 51.8 °F 48.2 °F 88% 29.62 in 10.0 mi East 17.3 mph 24.2 mph N/A   Overcast
10:53 AM 53.6 °F 48.2 °F 82% 29.62 in 10.0 mi ENE 21.9 mph 27.6 mph N/A   Overcast
11:13 AM 53.6 °F 48.2 °F 82% 29.63 in 10.0 mi East 17.3 mph 31.1 mph N/A   Overcast
11:33 AM 53.6 °F 48.2 °F 82% 29.63 in 10.0 mi East 19.6 mph 26.5 mph N/A   Overcast
11:53 AM 53.6 °F 48.2 °F 82% 29.64 in 10.0 mi ENE 18.4 mph 24.2 mph N/A   Overcast
12:13 PM 51.8 °F 48.2 °F 88% 29.65 in 10.0 mi East 16.1 mph 23.0 mph N/A   Overcast
12:32 PM 51.8 °F 48.2 °F 88% 29.65 in 10.0 mi ENE 16.1 mph 20.7 mph N/A   Overcast
12:53 PM 53.6 °F 48.2 °F 82% 29.66 in 10.0 mi ENE 12.7 mph 19.6 mph N/A   Overcast
1:13 PM 53.6 °F 48.2 °F 82% 29.66 in 10.0 mi East 16.1 mph 21.9 mph N/A   Overcast
1:33 PM 53.6 °F 50.0 °F 88% 29.66 in 10.0 mi ENE 15.0 mph 20.7 mph N/A   Overcast
1:53 PM 53.6 °F 50.0 °F 88% 29.67 in 10.0 mi ENE 13.8 mph 21.9 mph N/A   Overcast
2:13 PM 53.6 °F 50.0 °F 88% 29.67 in 10.0 mi ENE 12.7 mph 21.9 mph N/A Rain Light Rain
2:33 PM 53.6 °F 50.0 °F 88% 29.68 in 10.0 mi NE 11.5 mph 16.1 mph N/A   Overcast
2:53 PM 53.6 °F 48.2 °F 82% 29.68 in 10.0 mi ENE 13.8 mph 18.4 mph N/A   Overcast
3:13 PM 53.6 °F 48.2 °F 82% 29.69 in 10.0 mi ENE 11.5 mph - N/A   Overcast
3:33 PM 53.6 °F 48.2 °F 82% 29.70 in 10.0 mi ENE 12.7 mph - N/A   Overcast
3:53 PM 53.6 °F 48.2 °F 82% 29.71 in 10.0 mi ENE 11.5 mph 17.3 mph N/A   Overcast
4:13 PM 53.6 °F 48.2 °F 82% 29.71 in 10.0 mi ENE 16.1 mph 21.9 mph N/A   Overcast
4:33 PM 53.6 °F 46.4 °F 77% 29.72 in 10.0 mi ENE 16.1 mph 19.6 mph N/A   Overcast
4:53 PM 53.6 °F 46.4 °F 77% 29.72 in 10.0 mi ENE 12.7 mph - N/A   Overcast
5:13 PM 51.8 °F 46.4 °F 82% 29.73 in 10.0 mi ENE 13.8 mph 20.7 mph N/A   Overcast
5:33 PM 53.6 °F 46.4 °F 77% 29.74 in 10.0 mi ENE 12.7 mph 18.4 mph N/A   Overcast
5:53 PM 51.8 °F 44.6 °F 76% 29.74 in 10.0 mi ENE 15.0 mph 21.9 mph N/A   Overcast
6:13 PM 51.8 °F 44.6 °F 76% 29.74 in 10.0 mi ENE 13.8 mph 21.9 mph N/A   Overcast
6:33 PM 51.8 °F 44.6 °F 76% 29.75 in 10.0 mi ENE 12.7 mph 20.7 mph N/A   Overcast
6:53 PM 51.8 °F 44.6 °F 76% 29.75 in 10.0 mi NE 12.7 mph 20.7 mph N/A   Overcast
7:13 PM 50.0 °F 44.6 °F 82% 29.76 in 10.0 mi ENE 11.5 mph 21.9 mph N/A Rain Light Rain
7:33 PM 50.0 °F 46.4 °F 87% 29.76 in 10.0 mi NE 12.7 mph 17.3 mph N/A Rain Rain
7:53 PM 48.2 °F 46.4 °F 93% 29.77 in 10.0 mi ENE 9.2 mph 19.6 mph N/A   Light Drizzle
8:13 PM 48.2 °F 46.4 °F 93% 29.77 in 7.0 mi NE 10.4 mph 17.3 mph 0.01 in   Light Drizzle
8:33 PM 48.2 °F 46.4 °F 93% 29.77 in 10.0 mi NE 10.4 mph - 0.01 in   Overcast
8:53 PM 48.2 °F 46.4 °F 93% 29.77 in 10.0 mi NE 9.2 mph 17.3 mph 0.01 in   Overcast
9:13 PM 48.2 °F 46.4 °F 93% 29.78 in 10.0 mi NE 10.4 mph 18.4 mph N/A   Overcast
9:33 PM 48.2 °F 44.6 °F 87% 29.79 in 10.0 mi NE 9.2 mph 19.6 mph N/A   Overcast
9:53 PM 48.2 °F 46.4 °F 93% 29.79 in 10.0 mi NE 9.2 mph - N/A   Overcast
10:13 PM 48.2 °F 44.6 °F 87% 29.80 in 10.0 mi ENE 13.8 mph 21.9 mph N/A   Overcast
10:33 PM 48.2 °F 44.6 °F 87% 29.81 in 10.0 mi ENE 13.8 mph 20.7 mph N/A   Overcast
10:53 PM 48.2 °F 44.6 °F 87% 29.81 in 10.0 mi ENE 13.8 mph 19.6 mph N/A   Overcast
11:13 PM 48.2 °F 44.6 °F 87% 29.82 in 10.0 mi ENE 9.2 mph - N/A Rain Light Rain
11:33 PM 48.2 °F 44.6 °F 87% 29.83 in 10.0 mi East 13.8 mph 20.7 mph N/A   Light Drizzle
11:53 PM 48.2 °F 44.6 °F 87% 29.83 in 10.0 mi East 12.7 mph 20.7 mph N/A   Overcast